W8UFO-13 Weather Reports


Display with metric or nautical units.
time (UTC)temp
F
wind
direction
speed
MPH
gust
MPH
rain 1hr
in
rain 24hr
in
rain mn
in
humidity
%
barometer
mb
20260506073416 71 315 1.0 2.0 0.00 0.00 0.00 62 1011.6
20260506072916 71 0.0 1.0 0.00 0.00 0.00 62 1011.5
20260506072416 71 248 1.0 2.0 0.00 0.00 0.00 62 1011.5
20260506071916 71 203 1.0 2.0 0.00 0.00 0.00 61 1011.5
20260506071416 71 248 2.0 4.0 0.00 0.00 0.00 61 1011.7
20260506070916 71 270 3.0 5.0 0.00 0.00 0.00 61 1011.6
20260506070416 71 225 2.0 3.0 0.00 0.00 0.00 61 1011.6
20260506062416 70 0 2.0 4.0 0.00 0.00 0.00 60 1011.9
20260506061916 69 0.0 1.0 0.00 0.00 0.00 60 1012.2
20260506061416 69 0.0 0.0 0.00 0.00 0.00 60 1012.1
20260506060916 69 0.0 0.0 0.00 0.00 0.00 60 1012.3
20260506060416 69 225 1.0 2.0 0.00 0.00 0.00 60 1012.6
20260506051416 71 248 1.0 2.0 0.00 0.00 0.00 54 1012.7
20260506050916 71 338 1.0 4.0 0.00 0.00 0.00 54 1013.0
20260506050416 71 0.0 1.0 0.00 0.00 0.00 54 1012.9
20260506044916 71 0.0 1.0 0.00 0.00 0.00 53 1012.8
20260506044416 71 0.0 2.0 0.00 0.00 0.00 54 1012.9
20260506043916 71 248 1.0 1.0 0.00 0.00 0.00 53 1012.8
20260506043416 71 293 1.0 2.0 0.00 0.00 0.00 53 1012.9
20260506042916 71 248 1.0 2.0 0.00 0.00 0.00 54 1013.0
20260506042416 71 270 1.0 7.0 0.00 0.00 0.00 53 1013.0
20260506041916 71 248 1.0 2.0 0.00 0.00 0.00 53 1013.0
20260506041416 71 225 1.0 3.0 0.00 0.00 0.00 54 1012.9
20260506040916 71 248 1.0 2.0 0.00 0.00 0.00 54 1012.8
20260506040416 71 0.0 0.0 0.00 0.00 0.00 54 1012.9
20260506035917 71 203 1.0 2.0 0.00 0.00 0.00 54 1012.8
20260506035415 71 0.0 2.0 0.00 0.00 0.00 54 1012.7
20260506034917 71 225 1.0 3.0 0.00 0.00 0.00 54 1012.9
20260506034418 71 248 2.0 4.0 0.00 0.00 0.00 53 1013.0
20260506033915 71 293 2.0 3.0 0.00 0.00 0.00 54 1013.1
20260506033417 70 0.0 1.0 0.00 0.00 0.00 54 1013.0
20260506032917 70 248 1.0 2.0 0.00 0.00 0.00 54 1012.9
20260506032417 70 225 1.0 1.0 0.00 0.00 0.00 54 1013.0
20260506031917 70 248 1.0 2.0 0.00 0.00 0.00 55 1012.9
20260506031417 70 315 1.0 3.0 0.00 0.00 0.00 54 1012.9
20260506030917 70 248 1.0 2.0 0.00 0.00 0.00 54 1012.9
20260506030417 70 225 2.0 4.0 0.00 0.00 0.00 54 1013.0
20260506025917 70 0.0 2.0 0.00 0.00 0.00 54 1013.0
20260506025417 70 0.0 1.0 0.00 0.00 0.00 54 1013.0
20260506024917 70 0.0 2.0 0.00 0.00 0.00 54 1012.9
20260506024417 70 0.0 1.0 0.00 0.00 0.00 53 1012.8
20260506023917 71 225 1.0 2.0 0.00 0.00 0.00 53 1012.9
20260506023417 71 225 1.0 4.0 0.00 0.00 0.00 53 1012.8
20260506022917 71 0.0 1.0 0.00 0.00 0.00 53 1012.7
20260506022417 71 0.0 1.0 0.00 0.00 0.00 52 1012.8
20260506021917 71 270 1.0 2.0 0.00 0.00 0.00 52 1012.9
20260506021417 71 225 2.0 4.0 0.00 0.00 0.00 52 1013.0
20260506020917 71 203 2.0 3.0 0.00 0.00 0.00 52 1012.8
20260506020417 71 0.0 0.0 0.00 0.00 0.00 53 1012.8
20260506015918 71 113 1.0 1.0 0.00 0.00 0.00 52 1012.7
20260506015417 71 270 1.0 4.0 0.00 0.00 0.00 52 1012.6
20260506014917 71 0.0 0.0 0.00 0.00 0.00 51 1012.5
20260506014417 71 0.0 1.0 0.00 0.00 0.00 51 1012.5
20260506013917 71 338 1.0 3.0 0.00 0.00 0.00 51 1012.3
20260506013417 71 270 2.0 4.0 0.00 0.00 0.00 50 1012.2
20260506012917 71 225 1.0 4.0 0.00 0.00 0.00 50 1012.1
20260506012417 72 315 1.0 5.0 0.00 0.00 0.00 50 1012.1
20260506011917 72 0.0 2.0 0.00 0.00 0.00 50 1012.0
20260506011417 72 270 2.0 3.0 0.00 0.00 0.00 49 1011.9
20260506010917 72 248 1.0 2.0 0.00 0.00 0.00 49 1011.8
20260506010417 72 293 1.0 2.0 0.00 0.00 0.00 49 1011.8
20260506005917 72 0.0 2.0 0.00 0.00 0.00 48 1011.9
20260506005417 72 248 1.0 2.0 0.00 0.00 0.00 48 1011.9
20260506004917 72 248 1.0 2.0 0.00 0.00 0.00 48 1012.1
20260506004415 72 225 2.0 4.0 0.00 0.00 0.00 48 1012.1
20260506003917 73 293 2.0 4.0 0.00 0.00 0.00 48 1012.2
20260506003417 73 270 2.0 3.0 0.00 0.00 0.00 48 1012.3
20260506002917 73 248 1.0 2.0 0.00 0.00 0.00 48 1012.2
20260506002417 73 180 3.0 6.0 0.00 0.00 0.00 48 1012.3
20260506001917 73 225 3.0 4.0 0.00 0.00 0.00 48 1012.3
20260506001417 73 248 2.0 4.0 0.00 0.00 0.00 49 1012.3
20260506000917 73 248 4.0 6.0 0.00 0.00 0.00 49 1012.3
20260506000417 73 225 1.0 3.0 0.00 0.00 0.00 51 1012.3
20260505235917 74 203 1.0 1.0 0.00 0.00 0.00 51 1012.2
20260505235417 74 203 1.0 3.0 0.00 0.00 0.00 52 1012.2
20260505234917 74 248 1.0 2.0 0.00 0.00 0.00 51 1012.1
20260505234417 74 270 2.0 5.0 0.00 0.00 0.00 51 1012.0
20260505233917 75 315 3.0 6.0 0.00 0.00 0.00 51 1011.9
20260505233417 75 248 2.0 5.0 0.00 0.00 0.00 51 1012.0
20260505232917 75 225 2.0 5.0 0.00 0.00 0.00 52 1011.9
20260505232417 75 225 2.0 2.0 0.00 0.00 0.00 52 1011.9
20260505231917 75 0.0 1.0 0.00 0.00 0.00 52 1011.8
20260505231417 75 293 3.0 6.0 0.00 0.00 0.00 51 1011.9
20260505230917 75 225 2.0 5.0 0.00 0.00 0.00 53 1011.7
20260505230417 76 248 2.0 3.0 0.00 0.00 0.00 52 1012.0
20260505225917 76 203 2.0 4.0 0.00 0.00 0.00 51 1012.0
20260505225417 77 248 3.0 8.0 0.00 0.00 0.00 50 1011.9
20260505224917 77 270 2.0 4.0 0.00 0.00 0.00 51 1012.0
20260505224417 77 248 2.0 3.0 0.00 0.00 0.00 52 1012.0
20260505223917 76 248 1.0 3.0 0.00 0.00 0.00 51 1012.0
20260505223417 75 203 1.0 1.0 0.00 0.00 0.00 53 1012.0
20260505222917 75 203 2.0 6.0 0.00 0.00 0.00 53 1012.1
20260505222417 76 180 1.0 4.0 0.00 0.00 0.00 51 1012.2
20260505221917 76 203 1.0 2.0 0.00 0.00 0.00 52 1012.3
20260505221417 76 225 1.0 2.0 0.00 0.00 0.00 51 1012.2
20260505220917 76 225 1.0 2.0 0.00 0.00 0.00 52 1012.3
20260505220417 76 203 1.0 3.0 0.00 0.00 0.00 51 1012.3
20260505215917 76 225 3.0 4.0 0.00 0.00 0.00 50 1012.3
20260505215417 77 248 2.0 5.0 0.00 0.00 0.00 49 1012.4
20260505214917 77 270 2.0 4.0 0.00 0.00 0.00 49 1012.3
20260505214417 77 203 2.0 5.0 0.00 0.00 0.00 49 1012.3
20260505213917 77 225 1.0 3.0 0.00 0.00 0.00 48 1012.5
20260505213417 77 248 4.0 7.0 0.00 0.00 0.00 47 1012.7
20260505212917 77 0.0 1.0 0.00 0.00 0.00 47 1012.7
20260505212417 78 158 2.0 5.0 0.00 0.00 0.00 47 1012.7
20260505211917 78 203 1.0 4.0 0.00 0.00 0.00 45 1012.8
20260505211417 78 158 1.0 2.0 0.00 0.00 0.00 45 1012.8
20260505210917 79 225 1.0 3.0 0.00 0.00 0.00 45 1012.8
20260505210421 79 203 2.0 5.0 0.00 0.00 0.00 45 1012.9
20260505205917 78 203 2.0 4.0 0.00 0.00 0.00 46 1012.8
20260505205417 77 270 3.0 7.0 0.00 0.00 0.00 45 1012.9
20260505204917 77 68 2.0 4.0 0.00 0.00 0.00 44 1013.0
20260505204417 78 248 3.0 5.0 0.00 0.00 0.00 46 1013.1
20260505203917 77 225 1.0 4.0 0.00 0.00 0.00 46 1013.0
20260505203417 77 203 3.0 6.0 0.00 0.00 0.00 45 1013.2
20260505202917 76 180 4.0 9.0 0.00 0.00 0.00 47 1013.3
20260505202417 76 203 3.0 5.0 0.00 0.00 0.00 47 1013.7
20260505201917 76 203 2.0 3.0 0.00 0.00 0.00 50 1013.7
20260505201417 75 248 2.0 5.0 0.00 0.00 0.00 49 1013.6
20260505200917 75 203 3.0 4.0 0.00 0.00 0.00 49 1013.7
20260505200417 74 203 2.0 4.0 0.00 0.00 0.00 50 1013.7
20260505195917 74 293 1.0 3.0 0.00 0.00 0.00 50 1013.8
20260505195417 74 293 2.0 3.0 0.00 0.00 0.00 49 1013.9
20260505194917 74 203 1.0 2.0 0.00 0.00 0.00 49 1013.8
20260505194417 74 225 2.0 3.0 0.00 0.00 0.00 48 1013.7
20260505193917 74 248 3.0 5.0 0.00 0.00 0.00 49 1013.8
20260505193417 75 203 2.0 3.0 0.00 0.00 0.00 49 1014.0
20260505192917 75 315 2.0 3.0 0.00 0.00 0.00 48 1014.1
20260505192417 75 293 2.0 4.0 0.00 0.00 0.00 48 1014.4
20260505191917 76 248 1.0 2.0 0.00 0.00 0.00 50 1014.4
20260505191417 76 225 3.0 6.0 0.00 0.00 0.00 47 1014.6
20260505190917 76 180 1.0 2.0 0.00 0.00 0.00 49 1014.5
20260505190417 76 248 1.0 3.0 0.00 0.00 0.00 50 1014.6
20260505185917 76 0.0 1.0 0.00 0.00 0.00 53 1014.7
20260505185417 75 203 2.0 6.0 0.00 0.00 0.00 52 1014.8
20260505184917 75 203 4.0 8.0 0.00 0.00 0.00 52 1014.8
20260505184417 75 270 2.0 3.0 0.00 0.00 0.00 51 1014.9
20260505183917 75 225 3.0 6.0 0.00 0.00 0.00 51 1015.1
20260505183417 75 248 2.0 4.0 0.00 0.00 0.00 53 1015.2
20260505182917 75 315 3.0 6.0 0.00 0.00 0.00 51 1015.4
20260505182417 76 225 3.0 5.0 0.00 0.00 0.00 52 1015.3
20260505181917 75 203 4.0 7.0 0.00 0.00 0.00 54 1015.3
20260505181417 76 248 4.0 6.0 0.00 0.00 0.00 51 1015.5
20260505180917 75 270 1.0 3.0 0.00 0.00 0.00 53 1015.7
20260505180417 75 293 3.0 7.0 0.00 0.00 0.00 51 1015.8
20260505175917 75 203 3.0 4.0 0.00 0.00 0.00 52 1015.7
20260505175417 75 248 3.0 6.0 0.00 0.00 0.00 52 1015.7
20260505174917 75 158 4.0 11.0 0.00 0.00 0.00 50 1015.9
20260505174417 75 135 2.0 6.0 0.00 0.00 0.00 52 1015.9
20260505173917 75 270 1.0 3.0 0.00 0.00 0.00 54 1016.0
20260505173416 74 225 2.0 4.0 0.00 0.00 0.00 52 1016.0
20260505172917 74 270 4.0 7.0 0.00 0.00 0.00 53 1016.1
20260505172417 74 0 1.0 4.0 0.00 0.00 0.00 53 1016.1
20260505171917 74 248 2.0 4.0 0.00 0.00 0.00 54 1016.1
20260505171417 74 225 2.0 4.0 0.00 0.00 0.00 54 1016.2
20260505170917 74 135 2.0 6.0 0.00 0.00 0.00 53 1016.3
20260505170417 74 293 3.0 5.0 0.00 0.00 0.00 52 1016.4
20260505165917 74 248 3.0 6.0 0.00 0.00 0.00 52 1016.4
20260505165416 74 135 4.0 7.0 0.00 0.00 0.00 51 1016.7
20260505164916 74 248 3.0 6.0 0.00 0.00 0.00 53 1016.7
20260505164417 74 293 5.0 7.0 0.00 0.00 0.00 53 1016.9
20260505163917 74 158 3.0 5.0 0.00 0.00 0.00 54 1016.9
20260505163417 74 248 2.0 4.0 0.00 0.00 0.00 54 1016.8
20260505162917 74 248 1.0 2.0 0.00 0.00 0.00 55 1016.9
20260505162417 74 248 2.0 4.0 0.00 0.00 0.00 53 1016.9
20260505161917 75 0.0 1.0 0.00 0.00 0.00 56 1017.0
20260505161416 75 180 1.0 2.0 0.00 0.00 0.00 55 1016.8
20260505160917 75 248 2.0 4.0 0.00 0.00 0.00 55 1016.9
20260505160417 74 338 1.0 2.0 0.00 0.00 0.00 55 1016.8
20260505152917 72 270 1.0 1.0 0.00 0.00 0.00 59 1016.9
20260505152417 72 270 2.0 3.0 0.00 0.00 0.00 59 1017.0
20260505151917 71 248 2.0 4.0 0.00 0.00 0.00 58 1016.8
20260505151417 71 0.0 1.0 0.00 0.00 0.00 60 1016.7
20260505150916 70 0 1.0 2.0 0.00 0.00 0.00 59 1016.6
20260505150416 71 0.0 1.0 0.00 0.00 0.00 59 1016.8
20260505140416 68 293 1.0 3.0 0.00 0.00 0.00 61 1017.0
20260505124917 62 0.0 1.0 0.00 0.00 0.00 71 1016.6
20260505124417 61 0.0 0.0 0.00 0.00 0.00 75 1016.5
20260505123916 60 0.0 0.0 0.00 0.00 0.00 76 1016.5
20260505123417 59 0.0 1.0 0.00 0.00 0.00 74 1016.4
20260505122916 58 0.0 0.0 0.00 0.00 0.00 79 1016.3
20260505122417 58 0.0 0.0 0.00 0.00 0.00 80 1016.2
20260505121917 57 0.0 0.0 0.00 0.00 0.00 82 1016.1
20260505121416 57 0.0 0.0 0.00 0.00 0.00 85 1016.2
20260505120916 56 0.0 0.0 0.00 0.00 0.00 86 1016.3
20260505120416 55 0.0 0.0 0.00 0.00 0.00 87 1016.2
20260505115916 54 0.0 0.0 0.00 0.00 0.00 86 1016.2
20260505115417 54 0.0 0.0 0.00 0.00 0.00 86 1016.1
20260505114917 53 0.0 0.0 0.00 0.00 0.00 86 1016.1
20260505114416 53 0.0 0.0 0.00 0.00 0.00 85 1016.1
20260505113916 53 0.0 0.0 0.00 0.00 0.00 85 1016.0
20260505113417 53 0.0 0.0 0.00 0.00 0.00 85 1015.9
20260505112916 53 0.0 0.0 0.00 0.00 0.00 85 1015.7
20260505112416 53 0.0 0.0 0.00 0.00 0.00 85 1016.0
20260505111916 53 0.0 0.0 0.00 0.00 0.00 85 1015.8
20260505111416 53 0.0 0.0 0.00 0.00 0.00 85 1015.6
20260505110916 53 0.0 0.0 0.00 0.00 0.00 85 1015.6
20260505110416 53 0.0 0.0 0.00 0.00 0.00 85 1015.4
20260505101916 54 0.0 0.0 0.00 0.00 0.00 82 1015.4
20260505101417 54 0.0 0.0 0.00 0.00 0.00 82 1015.5
20260505100916 54 0.0 0.0 0.00 0.00 0.00 81 1015.6
20260505100416 54 0.0 0.0 0.00 0.00 0.00 81 1015.5
20260505095916 54 0.0 0.0 0.00 0.00 0.00 81 1015.6
20260505095416 54 0.0 0.0 0.00 0.00 0.00 81 1015.7
20260505094916 55 0.0 0.0 0.00 0.00 0.00 80 1015.6
20260505094416 55 0.0 0.0 0.00 0.00 0.00 80 1015.6
20260505093916 55 0.0 0.0 0.00 0.00 0.00 80 1015.8
20260505093416 55 0.0 0.0 0.00 0.00 0.00 79 1015.9
20260505092916 56 0.0 0.0 0.00 0.00 0.00 78 1015.8
20260505092416 56 0.0 0.0 0.00 0.00 0.00 78 1016.0
20260505091916 56 0.0 0.0 0.00 0.00 0.00 77 1015.8
20260505091416 57 0.0 0.0 0.00 0.00 0.00 76 1015.9
20260505090916 57 0.0 0.0 0.00 0.00 0.00 76 1016.0
20260505090416 57 0.0 0.0 0.00 0.00 0.00 75 1015.9
20260505085916 58 0.0 0.0 0.00 0.00 0.00 74 1015.8
20260505085416 58 0.0 0.0 0.00 0.00 0.00 72 1015.7
20260505084916 59 0.0 0.0 0.00 0.00 0.00 72 1015.7
20260505084416 59 0.0 0.0 0.00 0.00 0.00 70 1015.7
20260505083916 60 0.0 0.0 0.00 0.00 0.00 69 1015.7
20260505083416 60 0.0 1.0 0.00 0.00 0.00 69 1015.5
20260505082916 60 0.0 0.0 0.00 0.00 0.00 69 1015.4
20260505082416 60 0.0 0.0 0.00 0.00 0.00 68 1015.4
20260505081916 60 0.0 1.0 0.00 0.00 0.00 69 1015.3
20260505081416 61 0.0 0.0 0.00 0.00 0.00 68 1015.2
20260505080916 61 0.0 1.0 0.00 0.00 0.00 68 1015.2
20260505080416 61 0.0 0.0 0.00 0.00 0.00 69 1015.2
20260505075916 61 0.0 1.0 0.00 0.00 0.00 68 1015.2
20260505075416 61 0.0 1.0 0.00 0.00 0.00 68 1015.2
20260505074916 61 315 1.0 1.0 0.00 0.00 0.00 68 1015.1